Regional Weather Roundup
Issued by NWS

Home | Current Version | Previous Version | Text Only | Print | Product List | Glossary Off
Versions: 1 2 3 4 5 6 7 8 9 10 11 12 13 14 15 16 17 18 19 20 21 22 23 24 25 26 27 28 29 30 31 32 33 34 35 36 37 38 39 40 41 42 43 44 45 46 47 48 49 50

000
ASUS45 KCYS 282210
RWRWY

WYOMING REGIONAL WEATHER ROUNDUP
NATIONAL WEATHER SERVICE CHEYENNE WY
400 PM MDT SAT MAR 28 2015

NOTE:  "FAIR" INDICATES FEW OR NO CLOUDS BELOW 12,000 FEET
WITH NO SIGNIFICANT WEATHER AND/OR OBSTRUCTIONS TO VISIBILITY.

WYZ001-282300-
YELLOWSTONE NATIONAL PARK

CITY           SKY/WX    TMP DP  RH WIND       PRES   REMARKS
LK YELLOWSTONE   N/A     43  25  49 W13G22    30.03R
W YELLOWSTONE  NOT AVBL

$$
WYZ002>013-054>058-071-098>099-282300-
NORTHERN WYOMING

CITY           SKY/WX    TMP DP  RH WIND       PRES   REMARKS
JACKSON        CLOUDY    50  28  43 SW23G35   30.06S
CODY           FAIR      63  23  22 W14G20    29.86R
GREYBULL       PTSUNNY   75  18  11 W39G47    29.75R
WORLAND        FAIR      77  20  12 W30G40    29.75R
SHERIDAN       FAIR      78  23  13 W25G40    29.69R
BUFFALO        FAIR      75  24  15 W30G37    29.72F
GILLETTE       FAIR      75  25  15 SW26G38   29.65F
HULETT         FAIR      77  23  13 SW14G30   29.65F
NEWCASTLE      FAIR      79  19  11 W24G31    29.70F

$$
WYZ014>020-022>026-101>103-282300-
CENTRAL WYOMING

CITY           SKY/WX    TMP DP  RH WIND       PRES   REMARKS
BIG PINEY      FAIR      61  17  18 W23G35    30.08F
PINEDALE       FAIR      55  21  26 W23G38    30.07F
DUBOIS         FAIR      55  19  24 MISG      29.99S
LANDER         FAIR      68  19  15 W33G49    29.88R
RIVERTON       FAIR      71  19  14 W38G51    29.90
CASPER         FAIR      75  21  13 W35G56    29.83F
DOUGLAS        FAIR      78  21  12 W33G48    29.79F

$$
WYZ021-027>030-104>119-282300-
SOUTHERN WYOMING

CITY           SKY/WX    TMP DP  RH WIND       PRES   REMARKS
EVANSTON       FAIR      61  20  20 W33G40    30.18R
KEMMERER       FAIR      59  18  20 W28G37    30.15S
FORT BRIDGER   FAIR      65  19  17 W30G41    30.16F
ROCK SPRINGS   FAIR      67  17  14 W38G55    30.06F
DIXON          FAIR      72  23  15 W18G30    30.06F
RAWLINS        FAIR      70  19  14 W36G52    29.97F
SARATOGA       FAIR      64  25  22 W28G39    30.03F
LARAMIE        FAIR      62  20  19 W21G32    30.03F
CHEYENNE       FAIR      73  19  13 W26G33    29.96F
TORRINGTON     FAIR      82  21  10 W25G36    29.78F
PINE BLUFFS    FAIR      77  21  12 W23G30    29.89F

$$


USA.gov is the U.S. government's official web portal to all federal, state and local government web resources and services.